Location: Newark
(13.9670°N, 101.5170°E)
Time: 17:12:46
(UTC+00:00)

Tiangong 2 - Visible Passes

Search period start: 19 July 2019 00:00
Search period end: 29 July 2019 00:00
Orbit: 185 x 376 km, 42.8° (Epoch: 19 July)

Date Brightness Start Highest point End Pass type
(mag) Time Alt. Az. Time Alt. Az. Time Alt. Az.
26 Jul 3.5 12:39:27 10° NNE 12:39:57 10° NE 12:40:28 10° NE visible
27 Jul 2.7 12:36:06 10° NNW 12:38:24 20° NE 12:39:23 18° ENE visible
28 Jul 1.4 12:33:33 10° NNW 12:36:24 45° NE 12:37:43 26° ESE visible
